Showing default

NAVSTAR 75 (USA 265), 41019

Orbit data source: Space-Track

NAVSTAR 75 (USA 265), 41019 is a payload satellite owned by USAF SMC (US) in MEO that was launched on Sat, 31 Oct 2015 UTC via an ATLAS V 401 launch vehicle from the Air Force Eastern Test Range (AFETR). Payload-class satellites include a variety of spacecraft equipped with specific instruments for various scientific and technological missions. These include communications satellites like Starlink; space stations such as the ISS; scientific satellites like the Hubble; Earth observation satellites from companies like Planet Labs, Umbra, and HawkEye 360; GPS; miniature CubeSats for education and research; and military/defense satellites.

Loading next visibility...
Identifier
41019, 2015-062A
Orbit
MEO
Country
Flag of USUS
Related business
Manufacturer
Boeing/ES
Mission
Operational Defense Navigation
Bus & Motor
GPS IIF, AOCS
Mass
1,630 kg wet, ~1,500 kg dry
Launch date (UTC)
2015-10-31 (11 years ago)
Launch vehicle
ATLAS V 401
Launch site
Air Force Eastern Test Range (AFETR)
Object type
Payload
Rocket body
Debris
Shape & HBR
Box + 2 Pan, 9.0 m
Radar Cross Section
13.960 m², Large (>1 m²)

Expand to show TLE details & history
Last TLE update: 3 days ago

TLE from 3 days ago
0 NAVSTAR 75 (USA 265)
1 41019U 15062A   26170.77000951 -.00000091  00000-0  00000-0 0  9995
2 41019  56.9611  30.7115 0112010 231.0751 127.9690  2.00567013 77884
Epoch: 2026-06-19T18:28Z
TLE epoch observation values (Epoch: 2026-06-19T18:28:48.821Z)
Latitude
-0°
Longitude
-154.4718°
Altitude
20,367.324 km
Speed
3.847 km/s
True Right ascension
02h 02m 54s
True Declination
0° 00' 00"
Sunlit
Object was in daylight at epoch
Visualization orbit readout
Latitude
Unknown
Longitude
Unknown
Altitude
Unknown
Speed
Unknown
Apparent Right ascension
Unknown
Apparent Declination
Unknown
Sunlit
N/A
Visualization observer readout
Local Sidereal Time
21:24:04
Azimuth
Unknown
Elevation
Unknown
Doppler factor
Unknown
Orbital elements
Apogee altitude
20,479.335 km
Perigee altitude
19,884.338 km
Semi-major axis
26,559.973 km
Eccentricity
0.0112
Inclination
56.9611°
RAAN
30.7115°
Arg. of periapsis
231.0751°
True anomaly
128.97217°
Mean anomaly
127.969°
Eccentric anomaly
128.47145°
Mean motion
0.50142 °/min
Orbital period
717.96 mins
BSTAR
0
Loading maneuver chart data...
Computing Atmospheric mass density...
Loading historical data...
Loading historical data...
Loading historical data...
Loading historical data...
Loading historical data...
Loading historical data...
Loading historical data...
Other satellites on launch #62 in the year 2015 (2015-10-31 UTC)

Documentation

Showing up to 5 results
|